Location: Karcze
(52.0945°N, 22.4786°E)
Time: 12:44:49
(UTC+00:00)

Cosmos 1602 - Pass Details

Date: 14 July 2020
Orbit: 515 x 533 km, 82.5° (Epoch: 07 August)

Event Time Altitude Azimuth Distance (km) Brightness Sun altitude
Exits shadow 00:17:28 21° 220° (SW) 1,212 5.0 -13.0°
Maximum altitude 00:19:45 46° 285° (WNW) 705 4.3 -12.9°
Drops below altitude 10° 00:23:30 10° 0° (N) 1,767 7.5 -12.6°
Sets 00:25:43 0° 7° (N) 2,663 8.8 -12.5°
